Temp
-11 -11 -11 -12 -12 -11 -11 -11 -11 -11 -11 -11 -12 -12 -12 -12 -12 -12 -13 -13 -13 -12 -12 -12 -13 -13 -13 -13 -13 -13 -13 -13 -13 -13 -13 -13 -13 -13 -12 -12 -12 -12 -11
-11 -11 -11 -11 -11 -11 -11 -11 -12 -12 -12 -11 -11 -11 -12 -12 -12 -12 -13 -12 -12 -12 -12 -12 -12 -13 -13 -13 -12 -13 -14 -14 -13 -12 -12 -12 -13 -12 -12 -12 -11 -11 -11
-11 -11 -11 -11 -11 -11 -11 -11 -11 -12 -12 -11 -11 -11 -12 -12 -12 -12 -12 -12 -12 -12 -12 -12 -12 -12 -13 -12 -12 -12 -12 -12 -13 -12 -12 -12 -12 -12 -11 -11 -12 -12 -11
-11 -11 -11 -11 -11 -11 -11 -11 -11 -12 -12 -12 -12 -11 -11 -12 -11 -12 -13 -12 -12 -12 -12 -12 -12 -12 -12 -12 -12 -12 -12 -12 -12 -12 -11 -11 -11 -11 -11 -11 -12 -11 -11
-11 -11 -11 -11 -11 -11 -11 -12 -12 -12 -12 -12 -12 -12 -11 -11 -12 -12 -12 -12 -12 -12 -12 -12 -12 -12 -12 -11 -12 -12 -11 -11 -11 -11 -11 -11 -12 -12 -11 -11 -11 -11 -12
-11 -11 -10 -11 -11 -11 -11 -11 -12 -12 -12 -12 -12 -12 -12 -12 -12 -12 -12 -13 -12 -12 -12 -12 -12 -12 -12 -12 -12 -11 -11 -11 -11 -11 -11 -12 -11 -11 -12 -12 -12 -12 -12
-11 -11 -10 -11 -11 -11 -11 -11 -12 -12 -12 -12 -12 -12 -12 -12 -12 -12 -12 -12 -12 -12 -12 -12 -12 -12 -12 -11 -11 -11 -11 -11 -11 -11 -12 -12 -12 -12 -12 -12 -12 -12 -12
-11 -11 -11 -11 -11 -11 -11 -11 -11 -12 -12 -12 -12 -12 -12 -12 -12 -12 -12 -12 -12 -12 -12 -12 -11 -11 -11 -11 -11 -11 -11 -11 -12 -12 -12 -12 -12 -12 -12 -12 -12 -12 -12
-11 -11 -11 -11 -11 -12 -12 -11 -11 -11 -11 -12 -12 -12 -12 -12 -12 -12 -12 -12 -12 -12 -12 -12 -12 -11 -11 -11 -11 -11 -11 -11 -11 -12 -12 -12 -12 -12 -12 -12 -13 -12 -13
-11 -11 -11 -12 -11 -12 -12 -12 -11 -11 -11 -11 -12 -12 -12 -12 -12 -12 -11 -12 -12 -12 -12 -12 -11 -11 -11 -11 -11 -11 -11 -12 -11 -12 -12 -12 -12 -12 -12 -13 -13 -12 -13
-11 -11 -11 -12 -12 -11 -12 -12 -12 -11 -11 -11 -11 -11 -12 -12 -12 -12 -12 -12 -12 -12 -12 -11 -11 -11 -11 -11 -11 -11 -11 -12 -12 -12 -12 -12 -12 -12 -13 -12 -12 -12 -13
-11 -11 -11 -12 -12 -12 -12 -12 -12 -12 -12 -11 -11 -11 -11 -12 -12 -12 -12 -12 -12 -12 -12 -11 -11 -11 -11 -11 -11 -11 -11 -11 -12 -12 -12 -13 -12 -12 -12 -12 -12 -13 -13
-11 -11 -12 -12 -12 -12 -12 -12 -12 -12 -12 -12 -11 -11 -11 -11 -12 -12 -12 -12 -12 -12 -12 -12 -12 -11 -11 -11 -11 -11 -12 -12 -13 -12 -12 -12 -12 -12 -13 -13 -13 -13 -13
-11 -11 -12 -12 -12 -12 -12 -12 -12 -12 -12 -12 -12 -12 -12 -12 -12 -12 -12 -11 -12 -12 -12 -12 -12 -11 -11 -12 -12 -12 -12 -12 -12 -12 -12 -12 -13 -13 -13 -13 -13 -13 -13
-11 -11 -12 -12 -12 -12 -12 -12 -12 -12 -12 -12 -12 -12 -12 -12 -12 -12 -12 -12 -13 -13 -13 -12 -12 -12 -12 -12 -12 -12 -12 -12 -12 -13 -13 -13 -13 -13 -13 -13 -13 -13 -13
-11 -11 -11 -12 -12 -12 -12 -12 -12 -12 -12 -12 -12 -12 -12 -12 -12 -12 -12 -12 -12 -12 -12 -12 -12 -12 -12 -12 -12 -12 -13 -13 -13 -13 -13 -13 -13 -13 -13 -13 -14 -14 -14
-11 -11 -11 -11 -12 -12 -12 -12 -12 -12 -12 -12 -12 -12 -12 -12 -12 -12 -12 -12 -12 -12 -12 -12 -12 -13 -13 -13 -13 -13 -13 -13 -13 -13 -13 -14 -14 -14 -14 -14 -14 -14 -13
-12 -12 -11 -11 -11 -12 -12 -12 -12 -12 -12 -12 -12 -12 -12 -12 -13 -13 -13 -12 -12 -12 -13 -13 -13 -13 -13 -13 -13 -13 -13 -13 -14 -14 -14 -14 -14 -14 -13 -13 -13 -13 -13
-11 -11 -11 -11 -11 -12 -12 -12 -12 -12 -12 -12 -13 -13 -13 -13 -12 -12 -12 -12 -12 -12 -12 -12 -13 -13 -13 -13 -13 -13 -13 -14 -14 -14 -13 -13 -13 -13 -13 -13 -13 -13 -13
-12 -11 -11 -11 -11 -11 -12 -12 -12 -12 -12 -12 -13 -13 -13 -13 -13 -12 -13 -12 -12 -12 -12 -12 -12 -12 -13 -13 -13 -13 -13 -13 -13 -13 -13 -13 -13 -13 -13 -13 -13 -13 -13
-12 -11 -11 -12 -12 -12 -11 -11 -12 -12 -12 -12 -12 -12 -12 -12 -13 -13 -13 -13 -12 -12 -12 -12 -12 -12 -12 -12 -13 -13 -13 -13 -14 -14 -14 -13 -13 -13 -13 -13 -13 -14 -14
-12 -12 -11 -11 -11 -12 -12 -12 -12 -12 -12 -12 -12 -12 -12 -12 -12 -12 -13 -13 -13 -12 -12 -12 -12 -12 -12 -12 -13 -13 -13 -13 -14 -14 -13 -14 -13 -13 -13 -13 -13 -13 -13
-12 -12 -12 -12 -12 -11 -11 -12 -12 -12 -12 -12 -12 -12 -12 -12 -12 -12 -12 -12 -12 -12 -12 -13 -13 -13 -13 -13 -13 -13 -14 -13 -13 -13 -13 -13 -13 -13 -13 -14 -14 -14 -14
-12 -12 -12 -12 -12 -12 -12 -12 -11 -11 -11 -11 -11 -12 -12 -12 -12 -12 -12 -13 -13 -12 -12 -12 -12 -13 -13 -13 -13 -13 -13 -13 -13 -13 -13 -13 -13 -13 -13 -13 -14 -14 -14
-13 -13 -12 -12 -12 -12 -12 -12 -12 -11 -11 -11 -11 -11 -12 -12 -12 -12 -12 -13 -13 -13 -12 -12 -12 -12 -12 -13 -13 -13 -13 -13 -14 -14 -13 -13 -13 -13 -14 -14 -14 -14 -15
-13 -13 -13 -12 -12 -13 -12 -12 -12 -12 -12 -12 -12 -12 -11 -12 -12 -12 -12 -12 -12 -12 -12 -12 -12 -13 -13 -12 -12 -12 -13 -13 -13 -13 -13 -13 -13 -14 -14 -14 -14 -15 -15
Height
5725 5724 5721 5718 5717 5713 5712 5709 5707 5706 5705 5704 5703 5703 5703 5703 5701 5699 5698 5696 5695 5694 5694 5694 5695 5697 5697 5698 5700 5704 5708 5713 5717 5721 5726 5731 5737 5741 5747 5754 5759 5764 5768
5722 5721 5719 5717 5713 5711 5709 5708 5706 5705 5705 5704 5704 5704 5705 5705 5704 5702 5698 5698 5698 5696 5695 5695 5695 5698 5699 5701 5703 5706 5709 5713 5718 5722 5725 5730 5735 5741 5746 5751 5757 5764 5769
5720 5718 5717 5714 5712 5711 5709 5707 5706 5705 5705 5704 5704 5705 5705 5706 5705 5704 5702 5702 5701 5699 5698 5698 5699 5700 5702 5703 5706 5708 5710 5713 5717 5721 5724 5729 5733 5739 5745 5753 5758 5764 5770
5717 5716 5715 5713 5712 5710 5708 5706 5705 5705 5705 5705 5705 5706 5707 5706 5707 5706 5706 5706 5705 5703 5702 5703 5702 5704 5705 5707 5708 5710 5711 5712 5716 5720 5725 5731 5736 5742 5749 5755 5760 5766 5771
5717 5715 5714 5713 5712 5710 5708 5707 5706 5705 5705 5705 5705 5706 5707 5707 5708 5708 5708 5708 5708 5706 5705 5705 5706 5707 5708 5709 5712 5714 5715 5717 5719 5724 5730 5736 5741 5746 5752 5757 5762 5767 5773
5717 5715 5713 5712 5712 5710 5709 5708 5707 5706 5705 5705 5705 5706 5708 5707 5708 5710 5711 5710 5710 5709 5709 5710 5710 5712 5713 5715 5717 5719 5720 5722 5726 5730 5735 5740 5745 5750 5755 5760 5766 5771 5775
5716 5714 5712 5711 5711 5710 5709 5709 5708 5706 5705 5704 5705 5706 5707 5707 5709 5711 5713 5714 5713 5714 5713 5713 5715 5717 5717 5719 5721 5723 5725 5727 5731 5735 5740 5743 5748 5753 5758 5764 5769 5773 5777
5716 5713 5713 5712 5711 5710 5709 5709 5708 5706 5704 5703 5704 5706 5708 5708 5711 5713 5715 5716 5717 5716 5717 5717 5718 5721 5722 5724 5724 5726 5730 5732 5736 5740 5744 5748 5752 5757 5763 5768 5772 5775 5778
5716 5715 5714 5713 5712 5710 5710 5709 5709 5707 5704 5704 5704 5706 5708 5709 5713 5715 5716 5718 5719 5720 5720 5721 5723 5724 5725 5726 5727 5729 5733 5736 5738 5744 5748 5753 5757 5761 5766 5770 5774 5777 5780
5717 5716 5716 5715 5714 5713 5712 5711 5710 5709 5707 5705 5705 5706 5708 5710 5713 5716 5718 5720 5722 5723 5724 5725 5726 5728 5728 5728 5731 5733 5736 5739 5742 5747 5752 5757 5761 5764 5768 5772 5776 5778 5780
5717 5718 5717 5718 5718 5716 5714 5713 5712 5710 5709 5707 5705 5704 5707 5710 5714 5717 5719 5721 5723 5725 5726 5728 5729 5730 5731 5732 5735 5737 5740 5743 5747 5752 5756 5760 5764 5767 5771 5773 5776 5777 5779
5719 5719 5719 5720 5720 5719 5718 5717 5715 5714 5712 5710 5707 5705 5708 5712 5715 5718 5721 5724 5725 5726 5728 5729 5731 5732 5734 5735 5738 5741 5744 5747 5751 5756 5760 5764 5767 5770 5772 5773 5776 5778 5778
5720 5720 5721 5721 5722 5722 5721 5721 5720 5719 5718 5715 5712 5712 5713 5716 5718 5720 5723 5726 5728 5730 5732 5732 5733 5736 5736 5739 5742 5746 5748 5751 5757 5760 5763 5765 5767 5769 5772 5774 5775 5776 5777
5721 5722 5722 5723 5723 5724 5724 5724 5724 5724 5723 5722 5720 5717 5718 5721 5723 5725 5725 5727 5730 5732 5734 5736 5739 5741 5743 5745 5747 5750 5752 5755 5759 5761 5763 5766 5768 5770 5771 5773 5774 5774 5774
5723 5723 5724 5725 5726 5726 5726 5726 5727 5727 5728 5727 5727 5727 5727 5729 5730 5730 5730 5731 5733 5737 5740 5743 5745 5747 5749 5751 5753 5755 5756 5758 5761 5763 5765 5766 5767 5770 5771 5772 5772 5772 5772
5723 5724 5725 5726 5728 5729 5729 5730 5730 5731 5732 5733 5733 5734 5734 5736 5737 5738 5740 5741 5743 5745 5747 5748 5749 5751 5753 5754 5755 5757 5758 5760 5762 5764 5765 5767 5768 5768 5769 5770 5771 5772 5770
5723 5724 5726 5727 5729 5730 5732 5733 5734 5735 5736 5737 5739 5740 5740 5741 5742 5743 5745 5746 5748 5750 5751 5752 5753 5754 5755 5756 5757 5759 5760 5762 5764 5765 5766 5767 5768 5769 5770 5770 5769 5768 5767
5722 5724 5726 5728 5729 5731 5733 5735 5737 5738 5739 5740 5741 5743 5744 5745 5746 5747 5748 5749 5750 5752 5753 5754 5755 5756 5757 5757 5759 5761 5762 5764 5764 5764 5764 5765 5766 5766 5766 5764 5764 5762 5761
5721 5723 5725 5727 5729 5731 5733 5735 5737 5739 5741 5742 5743 5744 5746 5747 5748 5750 5750 5751 5752 5753 5754 5755 5756 5757 5757 5757 5758 5760 5761 5762 5762 5763 5763 5763 5763 5763 5761 5760 5759 5757 5754
5719 5721 5724 5726 5728 5730 5732 5734 5735 5737 5740 5742 5743 5744 5745 5746 5748 5750 5751 5752 5753 5754 5755 5755 5756 5757 5757 5758 5759 5760 5760 5760 5760 5761 5760 5759 5758 5758 5757 5756 5753 5752 5750
5716 5719 5721 5723 5725 5727 5729 5732 5734 5736 5738 5739 5741 5742 5743 5745 5747 5749 5750 5751 5752 5753 5754 5754 5755 5756 5756 5757 5757 5757 5757 5756 5756 5757 5755 5755 5754 5752 5750 5748 5747 5746 5743
5712 5715 5717 5720 5722 5724 5726 5728 5730 5732 5734 5736 5738 5740 5740 5743 5744 5746 5747 5748 5748 5750 5751 5753 5753 5753 5754 5754 5753 5753 5753 5752 5752 5751 5750 5749 5748 5746 5745 5744 5740 5737 5735
5707 5710 5713 5715 5717 5720 5722 5724 5725 5727 5729 5731 5733 5737 5737 5737 5740 5741 5743 5743 5745 5746 5747 5747 5748 5748 5748 5749 5749 5748 5748 5747 5747 5746 5746 5743 5741 5741 5740 5737 5734 5731 5726
5700 5703 5707 5710 5712 5714 5717 5719 5720 5722 5723 5725 5727 5731 5732 5733 5734 5737 5738 5739 5739 5740 5741 5742 5743 5743 5743 5742 5742 5742 5742 5741 5741 5740 5738 5737 5736 5734 5732 5729 5728 5723 5720
5694 5697 5700 5704 5707 5708 5711 5713 5714 5716 5718 5720 5721 5723 5726 5728 5729 5729 5731 5732 5733 5734 5735 5735 5736 5736 5735 5736 5736 5735 5736 5736 5734 5731 5728 5728 5728 5727 5724 5721 5719 5716 5714
5686 5689 5692 5695 5699 5702 5703 5706 5709 5709 5711 5713 5714 5715 5717 5719 5721 5722 5723 5723 5724 5725 5727 5727 5728 5728 5728 5728 5728 5727 5726 5725 5724 5723 5720 5718 5718 5717 5717 5714 5710 5710 5706
Wind_Speed
14 15 17 18 15 17 10 8 6 3 2 2 1 0 1 3 7 13 13 8 6 3 5 10 9 9 6 5 6 9 13 15 19 23 25 25 24 22 20 21 30 29 20
14 15 16 13 13 12 7 6 4 3 4 2 1 2 3 2 4 13 16 5 6 3 2 3 5 12 10 11 9 5 14 19 18 18 20 20 23 24 23 22 19 21 19
14 15 14 11 11 9 5 4 3 3 5 3 2 1 1 1 5 7 12 9 10 10 8 8 7 9 7 7 13 11 8 11 20 18 24 21 15 17 20 19 20 21 18
13 11 9 6 6 4 4 3 2 3 6 6 6 5 2 1 5 7 13 12 14 11 10 9 8 7 8 10 11 12 10 9 16 19 23 23 23 25 22 17 19 15 19
8 7 6 8 7 4 3 3 1 1 4 6 6 2 3 4 6 7 10 8 8 9 12 14 11 14 16 16 13 15 18 18 19 23 28 24 24 23 19 21 22 22 20
4 7 7 8 5 2 1 1 1 2 3 4 6 5 4 7 9 8 6 7 10 16 12 13 13 17 16 15 16 18 17 21 23 27 27 25 24 22 19 17 20 15 13
4 6 7 2 3 3 3 3 5 6 4 6 4 7 7 9 10 11 7 7 7 14 14 11 14 16 17 13 10 17 19 25 25 23 21 19 16 16 17 17 19 12 9
3 6 5 4 3 2 2 3 5 5 4 4 6 9 8 11 13 10 7 6 6 10 15 13 13 12 13 11 13 13 17 21 24 25 22 19 24 22 20 14 12 10 9
2 6 6 7 7 7 4 0 2 8 7 6 7 7 8 12 12 10 7 9 7 8 12 13 12 9 8 9 14 17 16 21 23 23 20 21 21 18 15 10 3 5 12
4 5 7 7 8 10 9 3 2 3 7 3 4 8 9 12 12 13 12 11 9 8 9 10 11 12 11 13 17 18 17 19 19 21 21 19 17 13 10 8 11 11 7
5 5 5 5 7 8 11 11 6 3 5 5 5 4 15 14 16 15 15 11 9 8 8 10 10 11 15 18 15 14 19 19 18 21 18 12 9 16 18 12 7 5 2
6 6 5 5 6 7 10 12 13 14 15 9 8 8 17 15 14 13 13 11 8 8 7 9 12 13 16 19 18 17 20 20 18 14 16 19 18 12 9 6 3 3 6
6 6 5 3 4 6 8 10 12 13 18 20 11 13 16 16 14 12 11 11 10 9 9 13 15 13 15 18 19 18 18 22 20 19 18 14 10 7 5 5 5 5 6
6 6 5 5 6 7 8 8 9 11 14 19 25 27 18 16 12 6 6 12 14 9 14 17 21 22 21 22 21 19 19 18 16 13 11 9 7 5 4 3 4 5 6
7 8 6 7 7 9 10 10 10 12 14 19 22 24 26 25 23 21 24 27 26 28 25 23 21 16 16 15 13 14 13 11 9 7 6 4 4 3 1 1 3 6 9
8 8 8 8 9 9 11 12 13 14 16 19 21 22 23 22 21 21 22 21 19 18 16 15 14 12 11 11 10 9 9 9 7 6 5 4 2 0 2 4 7 10 13
6 8 9 9 10 11 10 10 12 12 12 13 14 13 14 14 14 14 14 14 13 13 12 12 12 10 9 9 9 10 10 10 8 7 6 4 2 4 7 9 11 14 16
8 7 9 9 10 11 12 10 9 9 9 8 7 6 7 8 9 10 9 8 9 9 11 10 9 8 6 7 8 8 7 3 3 2 3 6 9 10 12 13 14 17 19
10 10 9 9 10 11 11 12 12 10 9 6 5 3 2 1 1 3 4 5 4 5 6 5 5 6 7 8 7 6 4 2 3 5 8 11 12 12 13 16 16 20 24
13 13 11 11 10 11 12 12 12 13 12 11 11 10 9 6 5 2 2 3 3 2 2 1 3 5 6 5 3 0 3 6 8 10 12 13 14 14 15 16 20 21 22
15 14 14 14 11 14 13 12 13 13 13 14 14 14 13 12 11 8 6 6 4 3 3 4 4 6 7 8 8 9 8 10 10 11 13 15 15 17 20 21 22 24 27
20 18 17 16 15 15 15 15 15 14 15 17 18 17 17 14 13 13 14 14 11 7 7 7 7 8 9 11 13 14 15 16 16 17 18 18 20 20 21 23 28 30 31
23 22 20 19 18 18 18 18 18 17 16 16 16 16 20 20 18 17 17 17 17 17 14 14 15 15 16 16 17 18 18 20 21 22 21 23 25 24 22 24 28 32 36
26 25 22 22 22 21 21 20 20 19 19 18 18 15 18 21 21 21 21 22 23 22 21 21 21 21 22 21 20 20 22 23 24 24 24 26 27 28 29 29 30 33 36
28 27 26 23 23 23 23 22 23 23 22 21 20 20 19 19 20 22 22 23 23 23 25 26 25 27 27 27 28 27 26 27 28 30 31 30 29 30 32 34 35 37 38
32 31 31 30 26 25 26 23 24 26 25 25 25 25 24 23 23 23 25 26 25 26 27 27 28 29 30 32 31 32 31 30 32 34 36 39 38 37 36 37 40 39 41
Wind_Direction
292 298 304 300 297 299 284 298 295 258 127 317 94 283 260 32 18 23 33 48 35 78 156 180 175 151 117 109 125 161 163 169 179 180 181 180 180 185 190 213 221 222 232
296 300 308 300 296 284 281 298 284 231 166 94 5 201 186 77 50 25 14 41 47 98 94 153 128 134 152 151 157 170 175 168 172 178 184 188 199 199 200 205 196 172 175
295 304 302 299 286 281 274 296 306 213 180 151 114 116 155 86 39 26 20 71 87 84 85 144 131 140 150 159 156 170 177 192 181 180 195 195 190 184 169 163 165 157 166
306 303 305 294 304 293 261 285 303 239 193 173 148 148 121 113 95 84 83 86 73 75 74 107 124 117 142 145 137 114 126 146 152 143 147 141 139 141 145 146 159 174 174
309 312 308 289 292 340 248 319 130 238 212 200 211 226 166 200 160 127 87 61 59 74 96 81 92 118 101 118 109 119 109 110 128 138 143 134 140 148 148 153 157 163 161
339 316 331 291 265 279 277 293 345 286 221 212 223 223 158 169 170 162 119 60 71 92 97 89 101 107 105 110 103 118 113 105 119 132 133 137 134 135 142 144 145 147 161
326 350 351 325 252 278 277 311 304 300 268 224 205 200 166 169 154 162 141 82 79 84 102 102 109 107 100 108 114 112 111 121 123 117 122 139 147 134 146 147 159 162 175
357 31 18 47 45 36 301 290 333 356 337 235 186 181 177 177 155 161 147 115 99 96 97 109 115 129 101 95 118 124 133 125 129 133 130 137 135 136 150 147 160 187 228
46 63 61 73 62 43 31 205 46 41 59 144 172 163 164 178 165 153 156 152 130 117 109 111 127 123 123 112 130 135 137 142 135 135 133 127 138 141 148 156 181 155 108
102 79 80 88 76 54 53 76 46 42 44 68 224 207 166 171 161 160 160 162 145 133 123 118 124 117 110 118 128 130 145 148 146 144 146 142 132 153 169 170 95 96 97
128 107 89 93 89 70 61 57 57 39 3 20 8 188 182 170 161 158 157 163 146 127 121 129 124 109 110 106 116 104 144 139 147 148 148 135 131 118 99 110 106 91 52
145 134 118 97 84 84 73 72 68 64 56 50 60 117 164 160 162 166 158 155 147 132 124 123 134 131 120 114 113 116 120 126 131 141 119 106 100 108 113 109 86 17 6
156 143 131 114 86 95 95 86 86 77 70 65 92 96 138 150 144 146 147 144 142 139 123 125 130 117 108 115 111 115 118 117 102 116 118 123 124 114 108 70 29 354 324
166 150 131 117 103 108 109 105 101 95 89 81 78 85 101 120 131 134 171 152 143 139 138 127 119 112 106 107 109 110 112 118 123 123 119 110 100 81 45 11 352 340 327
181 165 149 130 122 117 116 116 112 110 111 101 97 94 97 99 97 88 81 94 125 125 116 113 114 113 113 114 112 111 113 113 113 113 116 111 90 73 46 347 309 304 312
188 184 171 154 144 131 125 119 116 117 116 113 108 102 100 97 96 98 101 101 105 114 121 119 119 122 120 121 123 124 119 114 112 113 112 117 136 136 319 320 321 314 312
187 187 185 180 168 159 150 138 129 129 126 116 110 104 97 93 94 98 102 107 114 122 126 123 119 118 120 122 124 125 122 118 106 115 97 84 29 339 332 321 315 312 313
210 190 190 189 189 181 178 171 161 152 148 137 121 102 92 90 87 86 85 96 112 117 115 109 97 89 110 144 144 149 140 102 49 8 350 353 348 338 331 322 321 321 328
219 215 211 203 198 198 194 193 192 190 188 190 189 195 193 151 98 85 64 56 76 109 119 126 106 109 105 105 129 140 132 16 4 356 333 329 331 328 330 330 328 326 328
222 221 220 224 221 215 213 212 208 209 211 213 229 234 244 246 249 278 351 2 25 70 73 81 145 153 149 139 122 28 319 322 321 317 318 319 321 324 323 318 315 316 318
237 232 230 231 224 224 226 229 232 232 228 226 231 240 250 260 265 268 280 284 266 253 254 252 250 240 249 270 284 290 295 292 297 303 304 305 304 306 309 308 304 307 311
233 236 235 232 236 235 232 235 239 239 239 240 240 244 255 261 270 276 280 277 262 240 234 235 246 257 269 280 284 286 289 291 293 293 294 294 294 297 300 303 304 308 309
234 234 238 236 232 235 239 243 244 245 247 247 246 243 253 261 258 262 266 272 281 283 265 253 247 252 266 280 287 282 279 280 286 293 295 293 294 298 299 300 303 304 307
235 238 235 239 240 237 237 239 240 243 245 246 249 246 247 253 261 265 270 275 279 279 278 276 272 270 270 270 275 280 284 288 291 291 289 291 297 302 303 301 300 300 302
233 238 242 236 244 248 239 241 242 244 249 251 253 257 252 251 261 268 265 266 271 276 281 284 282 279 272 274 279 280 282 286 288 284 283 285 289 293 296 297 298 298 302
236 236 239 244 241 248 256 249 245 250 250 252 256 259 259 260 261 259 264 268 268 269 272 275 280 281 281 280 278 277 278 279 281 281 280 284 287 291 294 297 296 300 303